Погода в Замьянах

Россия / Астраханская область     46°49′29″N   47°37′58″E
темп.,
°C
ветер,
м/с
пор.,
м/с
влажн.,
%
обл.,
%
осадки,
мм/ч
давл.,
гПа
погр.,
м
17 апреля, сб
сб1701:00+15сз48499 0.0 1018141
04:00+14сз465190 0.0 1018100
07:00+13ссз235774 0.0 101859
10:00+20юз234089 0.0 1019532
13:00+23з5524100 0.0 10191874
16:00+22зсз4329100 0.0 10191584
19:00+19ссз4641100 0.0 1019298
22:00+16ссз5862100 0.0 1020325
18 апреля, вс
вс1801:00+14сз4671100 0.0 1021431
04:00+13с3480100 0.9 1021295
07:00+13с2371100 0.4 1021324
10:00+14св325766 0.4 1020524
13:00+17с224489 0.0 10191290
16:00+19с2236100 0.0 10181882
19:00+17ссз3439100 0.0 1018306
22:00+15сз224159 0.0 101911
19 апреля, пн
пн1901:00+14ссз334475 0.0 101932
04:00+14ссв1145100 0.0 101812
07:00+14всв344351 0.0 1018115
10:00+16юв3436100 0.0 1019367
13:00+20ю2232100 0.0 10181630
16:00+22юз3333100 0.0 10171965
19:00+20ююз344194 0.0 1017220
22:00+17ююз5748100 0.0 1017317
20 апреля, вт
вт2001:00+16ю4748100 0.0 1017278
04:00+16юв3649100 0.0 1016233
07:00+15вюв5945100 0.0 1015298
10:00+20вюв8113398 0.0 10161030
13:00+23вюв101226100 0.0 10141586
16:00+21вюв121534100 0.0 10131210
19:00+19вюв9154598 0.0 1016875
22:00+17вюв122141100 0.0 1015815
21 апреля, ср
ср2101:00+15вюв132147100 0.0 1016790
04:00+14вюв111853100 0.0 1017726
07:00+12вюв91661100 0.6 1020709
10:00+12юв101357100 0.6 1021909
13:00+10юв71177100 1.3 1022686
16:00+10вюв71087100 4.1 1022588
19:00+10в61086100 0.8 1023485
22:00+10в71380100 0.8 1023489